Flag for Switzerland Weather past 2 weeks in Solothurn, Solothurn, Switzerland

Now
47 °F

Cool.


Feels Like: 40 °F
Forecast: 34 / 47 °F
Wind: 16 mph from Northwest

Location: Grenchen

Current Time: Dec 20, 2014 at 12:41:51 PM

Latest Report: Dec 20, 2014 at 12:00 PM


Visibility: N/A

Pressure: 30.40 "Hg

Humidity: 68%

Dew point: 37 °F

Location of SolothurnLocation

Historic Weather in Solothurn — Graph

°F

Solothurn temperature yesterday

Maximum temperature yesterday: 53 °F (at 1:00 PM)
Minimum temperature yesterday: 39 °F (at 8:00 AM)
Average temperature yesterday: 47 °F

Past Weeks' High & Low Weather Summary

 TemperatureHumidityPressure
High53 °F (Dec 19, 1:00 PM)100% (Dec 10, 2:00 AM)30.50 "Hg (Dec 10, 2:00 AM)
Low27 °F (Dec 10, 5:00 AM)68% (Dec 8, 5:00 PM)29.91 "Hg (Dec 12, 4:00 PM)
Average40 °F91%30.17 "Hg
* Reported Dec 5 11:00 AM — Dec 20 11:00 AM, Solothurn, Weather by CustomWeather, © 2014

Note: Actual official high and low records may vary slightly from our data, if they occured in-between our weather recording intervals... More about our weather records

Advertising

Solothurn weather history for previous 24 hours

 ConditionsComfort  
Time TempWeatherWind HumidityBarometerVisibility
11:00 AM
Dec 20
49 °FCool.14 mph72%30.40 "HgN/A
10:00 AM46 °FCool.1 mph91%30.40 "HgN/A
9:00 AM42 °FQuite cool.2 mph97%30.40 "HgN/A
8:00 AM45 °FCool.9 mph81%30.37 "HgN/A
7:00 AM45 °FQuite cool.8 mph93%30.37 "HgN/A
6:00 AM47 °FCool.12 mph96%30.35 "HgN/A
5:00 AM47 °FCool.10 mph96%30.34 "HgN/A
4:00 AM48 °FCool.12 mph97%30.34 "HgN/A
3:00 AM48 °FCool.10 mph96%30.34 "HgN/A
2:00 AM47 °FCool.12 mph98%30.33 "HgN/A
1:00 AM48 °FCool.10 mph97%30.33 "HgN/A
12:00 AM47 °FCool.14 mph97%30.32 "HgN/A
11:00 PM
Dec 19
48 °FCool.13 mph95%30.31 "HgN/A
10:00 PM50 °FCool.15 mph87%30.28 "HgN/A
9:00 PM51 °FCool.17 mph79%30.26 "HgN/A
8:00 PM51 °FCool.17 mph78%30.24 "HgN/A
7:00 PM51 °FCool.15 mph73%30.23 "HgN/A
6:00 PM52 °FCool.15 mph73%30.20 "HgN/A
5:00 PM50 °FCool.5 mph83%30.22 "HgN/A
4:00 PM52 °FCool.14 mph79%30.21 "HgN/A
3:00 PM52 °FCool.12 mph81%30.22 "HgN/A
2:00 PM53 °FCool.15 mph79%30.23 "HgN/A
1:00 PM53 °FCool.16 mph79%30.24 "HgN/A
12:00 PM50 °FCool.9 mph88%30.27 "HgN/A
Weather by CustomWeather, © 2014

See weather overviewHow to use our weather pages